EHI
25 24 24 21 19 20 19 16 13 11 9 10 11 14 15 11 6 5 5 2 0 0 0 0 0 0 0 0 0 0 0 0 0 0 0 0 0 0
27 26 26 25 22 19 18 17 16 14 12 11 11 11 10 9 7 9 8 4 0 0 0 0 0 0 0 0 0 0 0 0 0 0 0 0 0 0
27 27 26 25 23 20 17 17 18 17 15 12 10 9 9 8 7 9 10 6 2 0 0 0 0 0 0 0 0 0 0 0 0 0 0 0 0 0
25 24 22 21 21 20 19 18 18 17 15 12 11 11 11 9 6 6 7 5 3 1 0 0 0 0 0 0 0 0 0 0 0 0 0 0 0 0
24 23 21 21 21 21 20 19 17 15 14 12 11 11 10 8 6 4 4 3 2 2 1 0 0 0 0 0 0 0 0 0 0 0 0 0 0 0
26 25 22 21 20 20 19 19 17 14 12 10 10 9 7 6 4 3 2 2 2 2 1 0 0 0 0 0 0 0 0 0 0 0 0 0 0 0
25 24 21 19 17 16 15 15 16 15 12 9 8 8 7 5 3 1 1 1 2 3 2 1 1 1 0 0 0 0 0 0 0 0 0 0 0 0
23 21 19 16 13 11 10 9 10 11 10 7 6 7 8 7 4 1 0 1 2 3 3 3 2 2 1 1 0 0 0 0 0 0 0 0 0 0
21 19 17 14 12 11 9 8 7 7 6 4 3 4 6 8 5 1 0 1 1 2 3 3 3 3 3 2 1 0 0 0 0 0 0 0 0 0
21 19 18 15 12 11 12 12 10 8 5 2 1 2 3 5 3 1 0 0 0 1 2 2 3 3 4 4 2 1 0 0 0 0 0 0 0 0
21 20 18 14 10 9 11 14 13 11 7 3 0 0 1 2 2 0 0 0 0 0 1 1 1 2 3 4 3 1 0 0 0 0 0 0 0 0
21 17 13 10 6 5 9 12 10 8 6 3 1 0 0 1 1 0 0 0 0 0 0 0 1 2 3 3 3 2 1 0 0 0 0 0 0 0
19 14 8 5 2 2 5 8 6 4 4 4 3 1 0 0 0 0 0 0 0 0 0 1 2 3 3 3 3 3 1 0 0 0 0 0 0 0
15 10 4 1 0 0 2 3 3 3 4 5 3 1 0 0 1 2 2 1 0 0 0 1 2 2 2 2 3 3 2 1 0 0 0 0 0 0
8 4 1 0 0 1 1 1 2 4 6 5 3 1 0 1 3 5 5 3 1 1 0 1 1 1 1 1 1 3 3 2 1 0 0 0 0 0
4 4 3 2 3 4 4 3 3 5 6 5 4 2 1 1 3 5 6 5 3 2 1 1 1 1 1 1 1 3 4 4 4 2 0 0 0 0
8 9 8 7 8 10 10 8 6 5 5 6 5 4 3 3 3 4 5 4 3 3 3 2 2 2 2 3 3 4 5 6 6 4 2 0 0 0
11 11 11 11 12 13 12 9 7 6 6 6 6 5 4 3 3 3 4 3 3 3 3 3 3 3 3 4 4 5 6 6 6 5 3 1 0 0
10 11 11 12 13 13 12 10 8 7 7 6 6 6 4 3 3 3 3 3 3 3 3 3 3 3 3 3 4 4 5 6 6 5 4 2 1 0
8 8 9 10 12 12 10 11 11 9 8 7 6 5 4 3 3 3 3 3 3 3 3 3 3 3 3 3 3 3 4 4 4 5 4 3 2 1
6 6 6 8 9 9 9 10 11 10 9 8 7 5 4 3 3 3 3 3 3 3 3 3 3 3 3 3 3 3 3 2 2 3 3 2 1 0
6 6 6 6 7 7 8 8 8 8 9 9 8 6 5 4 3 3 3 3 3 3 3 3 3 3 3 3 3 3 3 2 2 1 1 1 0 0
6 6 6 6 6 7 8 7 5 6 8 9 8 7 6 5 4 3 3 3 3 3 3 3 3 3 3 3 3 3 3 2 2 2 1 0 0 0
Wind_Speed
1 1 1 1 1 0 1 1 2 2 1 1 2 2 3 4 6 5 5 7 7 6 6 5 5 5 4 4 4 5 4 4 4 4 3 3 3 3
1 1 1 1 1 1 0 0 1 2 2 1 2 3 3 4 7 5 5 8 7 6 5 5 5 5 4 4 4 4 4 4 4 4 4 4 4 4
1 1 1 1 0 1 1 0 1 2 3 2 2 3 4 5 4 4 4 4 4 6 6 6 6 5 5 5 5 5 5 5 5 5 5 5 5 4
1 1 1 0 0 0 0 0 1 2 4 4 3 3 4 4 4 3 3 3 3 7 6 6 6 6 6 6 6 6 6 6 5 5 5 5 5 4
1 1 1 1 1 1 1 1 0 1 3 4 3 2 2 3 4 3 4 2 3 5 6 6 7 7 7 7 7 7 6 6 6 6 6 5 5 4
2 2 2 2 1 1 1 1 1 2 3 3 3 3 2 3 3 3 3 2 2 3 4 5 6 6 6 6 7 7 6 6 5 5 5 4 4 4
2 2 3 4 4 3 2 2 2 2 2 2 3 2 2 2 2 2 3 3 2 2 3 3 3 3 3 4 5 6 6 6 6 5 5 4 4 4
2 2 2 3 4 5 6 5 3 2 2 2 1 2 2 2 2 2 2 2 2 1 2 2 3 2 3 3 5 7 7 6 6 6 5 5 4 4
1 1 1 2 3 3 4 5 5 4 3 2 2 1 2 2 3 2 1 2 2 2 2 1 2 2 2 4 8 8 8 7 7 6 5 5 4 4
2 2 2 2 2 2 3 4 4 3 3 2 1 1 2 2 2 2 3 3 2 1 1 1 1 1 2 3 7 8 8 8 7 7 6 5 4 3
2 3 3 3 4 3 3 3 3 2 4 5 4 3 4 4 4 3 3 2 2 1 1 1 1 1 2 2 4 8 8 7 7 7 6 5 4 3
3 3 5 4 4 4 2 3 3 1 2 3 3 3 3 4 3 2 2 2 2 1 1 1 2 1 1 1 3 4 4 5 6 6 6 6 5 3
1 2 2 4 4 3 2 2 2 1 1 2 2 2 2 2 2 2 1 1 1 1 2 2 1 1 1 1 2 3 5 4 4 4 5 6 6 5
1 2 3 4 2 1 1 1 1 0 1 1 1 2 2 2 2 2 2 1 1 2 3 2 1 1 1 1 1 3 3 4 4 4 4 5 6 7
1 3 3 3 2 1 2 1 0 1 1 1 1 1 1 2 2 2 2 1 0 2 3 2 2 1 1 1 1 2 2 3 3 3 3 3 3 3
2 2 3 3 2 1 2 2 1 1 1 0 1 1 1 2 2 2 2 2 2 1 2 2 2 2 2 2 1 1 1 2 2 3 3 3 3 3
1 2 2 2 2 2 2 2 2 2 1 1 1 1 1 1 1 1 1 1 1 1 1 1 1 1 1 1 2 2 2 2 2 3 2 2 3 4
2 2 2 3 3 2 2 2 2 1 1 2 2 2 2 2 2 1 1 1 2 2 2 2 1 1 1 2 2 2 2 2 2 2 2 3 3 3
2 3 3 2 2 2 2 2 2 1 1 1 2 2 2 2 2 2 2 2 2 2 2 2 2 2 2 3 3 3 3 2 2 2 3 2 3 2
4 3 3 2 2 2 2 1 1 1 1 2 2 2 2 2 2 2 2 2 2 2 1 1 2 2 3 3 2 2 4 2 2 2 2 2 1 1
4 3 2 2 2 2 2 2 2 2 2 2 2 2 2 2 2 2 2 2 2 2 2 2 3 4 2 2 2 2 2 3 4 3 2 2 2 2
3 3 2 2 2 2 2 2 2 2 2 2 2 2 2 2 2 2 2 2 3 3 3 2 2 3 2 3 3 2 2 2 3 4 4 4 3 3
2 2 2 3 3 2 2 2 2 1 1 2 1 1 1 1 1 2 2 3 2 2 2 2 2 2 2 3 3 2 3 3 2 2 3 5 6 7
Wind_Direction
284 297 284 307 325 319 125 150 147 147 124 134 122 117 119 110 121 122 113 116 118 117 114 112 116 118 120 119 117 119 120 125 131 131 134 136 147 158
265 267 278 305 330 351 51 183 152 146 132 126 125 128 117 119 121 116 114 117 117 117 112 109 108 111 117 117 116 119 124 129 129 124 118 114 114 114
301 292 284 281 289 319 344 43 107 123 129 117 107 113 113 111 111 113 118 117 111 110 110 108 108 107 108 113 114 114 114 115 116 114 111 108 105 108
335 348 331 304 13 331 336 13 96 114 133 137 132 124 114 122 126 129 121 114 108 110 111 110 107 101 100 104 103 101 100 101 103 104 105 103 102 101
27 27 9 16 11 350 353 30 67 113 122 136 131 124 127 136 129 130 121 118 118 114 111 111 105 103 101 102 103 102 103 103 101 99 96 94 93 93
51 40 30 34 26 2 23 45 82 106 121 130 138 144 139 143 141 145 131 132 127 131 118 119 116 113 109 112 113 113 112 111 109 106 101 97 91 87
69 74 72 73 67 56 63 59 80 100 119 125 142 143 142 152 163 163 147 149 136 130 134 141 141 135 131 130 128 130 130 128 125 121 116 111 107 100
70 83 100 86 88 84 80 73 83 121 136 140 145 153 158 160 150 165 158 158 144 139 142 152 154 149 152 150 151 149 147 143 139 135 130 127 124 118
70 62 67 83 86 100 105 91 70 66 97 140 148 179 160 161 161 161 136 118 117 151 145 156 157 148 163 152 153 154 154 153 150 148 147 144 144 144
57 56 79 72 68 70 101 96 85 62 73 106 148 168 141 138 148 149 139 122 110 117 152 167 182 154 125 130 156 157 160 165 165 163 161 163 170 178
82 62 71 69 49 54 98 105 100 88 69 89 117 122 122 123 121 119 136 141 147 170 177 157 161 131 133 149 166 168 168 172 174 175 178 186 195 196
107 92 74 71 52 51 99 109 105 95 91 99 105 114 124 124 127 131 148 159 149 153 159 165 176 160 167 164 161 171 180 189 191 193 195 201 203 199
132 121 102 94 75 53 69 100 133 140 160 145 137 140 133 128 134 134 122 133 149 159 154 155 183 187 184 171 173 179 182 183 188 203 210 212 209 200
111 105 110 113 95 68 90 109 119 140 184 161 157 154 150 146 141 127 116 115 146 168 163 161 177 186 196 196 190 181 183 181 178 187 191 203 211 210
80 117 132 142 152 170 164 165 202 210 198 156 160 150 144 146 140 136 140 143 124 165 174 191 200 208 205 219 213 183 185 190 182 179 182 185 194 196
138 155 173 200 227 194 167 198 206 204 187 164 158 161 149 153 165 167 177 183 175 185 195 198 217 225 233 234 211 201 193 192 184 184 187 191 190 195
162 199 189 190 187 184 181 180 185 184 180 179 169 169 169 166 174 174 185 191 192 192 198 209 207 209 226 227 222 219 213 208 193 185 194 206 200 198
168 209 204 208 203 194 193 186 177 181 187 174 175 182 187 187 188 193 187 200 215 210 204 202 192 210 267 269 232 227 221 219 203 189 198 214 221 205
208 221 213 214 208 204 201 189 182 180 181 174 179 191 198 199 194 209 210 213 222 221 203 187 194 212 236 253 249 225 218 219 209 211 220 221 225 211
229 228 217 213 209 202 197 199 190 178 183 195 199 204 204 209 213 223 225 220 225 228 221 203 207 217 234 247 248 248 224 217 207 215 227 232 239 208
224 227 224 213 213 205 192 193 198 195 207 218 209 209 218 223 231 237 233 248 244 236 225 222 222 221 239 249 252 233 226 230 219 209 212 218 232 221
218 218 215 225 224 210 196 203 215 208 209 218 213 216 218 219 230 237 232 237 236 237 237 235 225 217 233 249 259 248 236 237 238 235 232 219 211 222
215 215 212 219 218 211 200 207 221 224 223 235 218 209 199 227 242 247 252 252 250 251 252 245 237 239 241 250 255 250 251 245 228 219 246 243 230 233